Radiation Dose at Monitoring Post of Fukushima Daini Nuclear Power Station
Date,Time,MP-1(microSv/h),MP-2(microSv/h),MP-3(microSv/h),MP-4(microSv/h),MP-5(microSv/h),MP-6(microSv/h),MP-7(microSv/h),Wind Direction,Wind Velocity(m/s),Rain
2017/10/25,00:00,0.323,0.206,0.335,0.316,0.307,0.164,0.098,south-southwest,8.8,No
2017/10/25,00:10,0.322,0.205,0.336,0.317,0.308,0.165,0.098,south,13.2,No
2017/10/25,00:20,0.322,0.206,0.335,0.317,0.308,0.165,0.099,south,19.9,No
2017/10/25,00:30,0.321,0.206,0.334,0.318,0.308,0.163,0.099,south-southwest,6.2,No
2017/10/25,00:40,0.323,0.205,0.336,0.316,0.309,0.164,0.099,south-southwest,3.6,No
2017/10/25,00:50,0.321,0.205,0.335,0.317,0.306,0.164,0.098,south,11.5,No
2017/10/25,01:00,0.323,0.206,0.337,0.317,0.309,0.164,0.099,-,CALM,No
2017/10/25,01:10,0.324,0.205,0.337,0.317,0.310,0.165,0.099,southwest,2.3,No
2017/10/25,01:20,0.322,0.206,0.335,0.318,0.308,0.164,0.098,southwest,2.7,No
2017/10/25,01:30,0.324,0.206,0.335,0.317,0.310,0.165,0.099,-,CALM,No
2017/10/25,01:40,0.323,0.205,0.335,0.316,0.307,0.165,0.098,southwest,1.2,No
2017/10/25,01:50,0.321,0.206,0.335,0.317,0.310,0.165,0.098,south-southwest,1.7,No
2017/10/25,02:00,0.322,0.206,0.336,0.318,0.310,0.165,0.099,southwest,1.4,No
2017/10/25,02:10,0.321,0.206,0.335,0.318,0.308,0.165,0.098,southwest,2.3,No
2017/10/25,02:20,0.322,0.206,0.336,0.318,0.309,0.165,0.099,west-southwest,1.2,No
2017/10/25,02:30,0.322,0.206,0.335,0.315,0.307,0.165,0.098,west-southwest,1.8,No
2017/10/25,02:40,0.322,0.205,0.334,0.317,0.309,0.166,0.099,west,1.3,No
2017/10/25,02:50,0.323,0.207,0.336,0.319,0.308,0.165,0.098,northwest,1.1,No
2017/10/25,03:00,0.322,0.206,0.336,0.318,0.309,0.166,0.099,northwest,1.9,No
2017/10/25,03:10,0.321,0.205,0.335,0.317,0.310,0.165,0.098,northwest,2.1,No
2017/10/25,03:20,0.323,0.205,0.337,0.318,0.308,0.165,0.099,west-northwest,0.8,No
2017/10/25,03:30,0.322,0.207,0.336,0.316,0.309,0.165,0.099,west-northwest,2.4,No
2017/10/25,03:40,0.323,0.205,0.336,0.317,0.309,0.165,0.098,west-northwest,1.6,No
2017/10/25,03:50,0.323,0.206,0.335,0.318,0.308,0.164,0.099,north-northwest,1.5,No
2017/10/25,04:00,0.322,0.205,0.335,0.317,0.309,0.164,0.099,north-northeast,1.9,No
2017/10/25,04:10,0.323,0.204,0.335,0.318,0.308,0.166,0.099,north,2.6,No
2017/10/25,04:20,0.320,0.206,0.336,0.317,0.307,0.165,0.098,north,3.7,No
2017/10/25,04:30,0.322,0.206,0.335,0.317,0.311,0.166,0.100,north,2.3,No
2017/10/25,04:40,0.323,0.206,0.334,0.318,0.309,0.166,0.098,north-northeast,2.7,No
2017/10/25,04:50,0.322,0.205,0.335,0.318,0.310,0.165,0.099,north-northeast,2.2,No
2017/10/25,05:00,0.321,0.208,0.335,0.316,0.310,0.166,0.099,north-northeast,2.3,No
2017/10/25,05:10,0.323,0.205,0.336,0.317,0.309,0.165,0.099,north,2.6,No
2017/10/25,05:20,0.322,0.206,0.336,0.317,0.308,0.164,0.098,north,3.0,No
2017/10/25,05:30,0.322,0.205,0.335,0.316,0.309,0.165,0.099,north,3.8,No
2017/10/25,05:40,0.324,0.206,0.336,0.318,0.307,0.165,0.099,north,2.8,No
2017/10/25,05:50,0.321,0.206,0.336,0.317,0.307,0.165,0.099,north,2.8,No
2017/10/25,06:00,0.322,0.207,0.335,0.317,0.309,0.165,0.099,north-northwest,2.4,No
2017/10/25,06:10,0.320,0.206,0.337,0.316,0.308,0.166,0.098,north,3.5,No
2017/10/25,06:20,0.322,0.206,0.335,0.317,0.308,0.165,0.098,north,3.2,No
2017/10/25,06:30,0.322,0.206,0.336,0.316,0.307,0.165,0.099,north,3.7,No
2017/10/25,06:40,0.321,0.206,0.336,0.317,0.306,0.165,0.099,north-northwest,4.2,No
2017/10/25,06:50,0.322,0.206,0.335,0.318,0.309,0.165,0.098,north,4.9,No
2017/10/25,07:00,0.322,0.205,0.336,0.317,0.308,0.166,0.099,north-northwest,4.9,No
2017/10/25,07:10,0.321,0.206,0.336,0.319,0.308,0.165,0.099,north-northwest,5.1,No
2017/10/25,07:20,0.322,0.206,0.335,0.318,0.309,0.165,0.098,north-northwest,5.2,No
2017/10/25,07:30,0.321,0.205,0.336,0.316,0.307,0.164,0.099,north-northwest,3.1,No
2017/10/25,07:40,0.323,0.206,0.335,0.318,0.309,0.164,0.098,north-northwest,4.0,No
2017/10/25,07:50,0.322,0.205,0.335,0.315,0.307,0.165,0.099,north-northwest,3.7,No
2017/10/25,08:00,0.322,0.205,0.337,0.317,0.308,0.165,0.098,north,4.2,No
2017/10/25,08:10,0.322,0.206,0.334,0.317,0.307,0.164,0.099,north-northwest,4.0,No
2017/10/25,08:20,0.322,0.205,0.336,0.316,0.307,0.166,0.099,north-northwest,2.3,No
2017/10/25,08:30,0.321,0.206,0.334,0.317,0.309,0.165,0.098,north-northwest,2.7,No
2017/10/25,08:40,0.320,0.205,0.334,0.315,0.307,0.165,0.099,north-northwest,3.2,No
2017/10/25,08:50,0.322,0.205,0.335,0.317,0.309,0.164,0.098,north-northwest,3.5,No
2017/10/25,09:00,0.321,0.204,0.333,0.315,0.307,0.166,0.099,north,3.9,No
2017/10/25,09:10,0.321,0.206,0.335,0.317,0.308,0.164,0.098,north,3.2,No
2017/10/25,09:20,0.320,0.206,0.335,0.316,0.307,0.165,0.099,north,3.4,No
2017/10/25,09:30,0.321,0.207,0.336,0.318,0.307,0.164,0.098,north-northwest,3.8,No
2017/10/25,09:40,0.322,0.206,0.334,0.316,0.308,0.165,0.099,north-northwest,2.8,No
2017/10/25,09:50,0.322,0.206,0.337,0.317,0.307,0.165,0.098,north-northwest,3.0,No
2017/10/25,10:00,0.322,0.205,0.334,0.316,0.308,0.165,0.099,north-northwest,3.5,No
2017/10/25,10:10,0.320,0.205,0.334,0.318,0.307,0.166,0.099,north-northwest,2.8,No
2017/10/25,10:20,0.322,0.206,0.334,0.316,0.310,0.166,0.099,northwest,2.1,No
2017/10/25,10:30,0.322,0.205,0.337,0.318,0.307,0.166,0.098,north-northwest,2.8,No
2017/10/25,10:40,0.322,0.206,0.334,0.316,0.311,0.165,0.098,northwest,2.7,No
2017/10/25,10:50,0.323,0.205,0.337,0.318,0.306,0.166,0.098,north-northwest,4.2,No
2017/10/25,11:00,0.319,0.206,0.334,0.316,0.306,0.164,0.098,north-northwest,2.4,No
2017/10/25,11:10,0.321,0.206,0.335,0.315,0.310,0.166,0.098,north-northwest,1.7,No
2017/10/25,11:20,0.320,0.205,0.335,0.318,0.305,0.165,0.098,north,2.7,No
2017/10/25,11:30,0.322,0.206,0.335,0.315,0.311,0.166,0.098,north-northwest,2.4,No
2017/10/25,11:40,0.321,0.205,0.336,0.317,0.309,0.165,0.098,north,2.8,No
2017/10/25,11:50,0.323,0.207,0.334,0.319,0.308,0.165,0.098,north-northeast,2.9,No
2017/10/25,12:00,0.322,0.206,0.337,0.317,0.311,0.166,0.098,north-northeast,4.5,No
2017/10/25,12:10,0.322,0.206,0.336,0.318,0.308,0.165,0.099,north-northeast,5.2,No
2017/10/25,12:20,0.322,0.206,0.335,0.315,0.312,0.166,0.099,north,4.3,No
2017/10/25,12:30,0.321,0.207,0.336,0.319,0.308,0.166,0.100,north,6.6,No
2017/10/25,12:40,0.323,0.206,0.336,0.315,0.311,0.165,0.099,north-northeast,5.5,No
2017/10/25,12:50,0.323,0.206,0.334,0.320,0.309,0.165,0.099,north-northeast,4.3,No
2017/10/25,13:00,0.323,0.207,0.337,0.316,0.307,0.165,0.098,north-northeast,5.5,No
2017/10/25,13:10,0.321,0.206,0.334,0.317,0.312,0.165,0.099,north-northeast,4.5,No
2017/10/25,13:20,0.324,0.207,0.335,0.319,0.307,0.166,0.100,north-northeast,5.7,No
2017/10/25,13:30,0.322,0.207,0.335,0.317,0.311,0.166,0.099,north-northeast,4.0,No
2017/10/25,13:40,0.322,0.208,0.338,0.319,0.309,0.166,0.099,north-northeast,5.9,No
2017/10/25,13:50,0.322,0.206,0.336,0.317,0.311,0.166,0.098,north,6.2,No
2017/10/25,14:00,0.322,0.205,0.338,0.320,0.309,0.167,0.099,north,4.3,Yes
2017/10/25,14:10,0.323,0.207,0.335,0.317,0.312,0.165,0.098,north,6.3,No
2017/10/25,14:20,0.322,0.206,0.337,0.320,0.308,0.166,0.098,north-northeast,4.1,No
2017/10/25,14:30,0.322,0.208,0.335,0.318,0.311,0.166,0.100,north-northeast,1.4,No
2017/10/25,14:40,0.322,0.207,0.338,0.319,0.308,0.166,0.099,north,4.4,No
2017/10/25,14:50,0.323,0.207,0.336,0.318,0.311,0.165,0.099,north,7.8,Yes
2017/10/25,15:00,0.322,0.209,0.338,0.319,0.308,0.165,0.099,north,6.7,No
2017/10/25,15:10,0.324,0.206,0.337,0.319,0.311,0.167,0.099,north-northwest,8.7,Yes
2017/10/25,15:20,0.322,0.210,0.339,0.318,0.309,0.167,0.101,north-northwest,7.3,Yes
2017/10/25,15:30,0.326,0.211,0.340,0.320,0.312,0.168,0.102,north-northwest,6.2,Yes
2017/10/25,15:40,0.327,0.209,0.339,0.321,0.312,0.170,0.102,north-northwest,6.4,Yes
2017/10/25,15:50,0.326,0.211,0.341,0.323,0.313,0.170,0.103,north,4.8,Yes
2017/10/25,16:00,0.327,0.211,0.341,0.322,0.315,0.171,0.106,north-northwest,3.2,Yes
2017/10/25,16:10,0.326,0.213,0.343,0.324,0.314,0.174,0.106,north,5.1,Yes
2017/10/25,16:20,0.329,0.213,0.340,0.322,0.316,0.173,0.106,north,6.4,Yes
2017/10/25,16:30,0.325,0.213,0.340,0.323,0.314,0.172,0.106,north,6.0,Yes
2017/10/25,16:40,0.326,0.212,0.339,0.323,0.314,0.172,0.104,north,6.3,Yes
2017/10/25,16:50,0.326,0.211,0.338,0.320,0.313,0.171,0.106,north,8.4,Yes
2017/10/25,17:00,0.325,0.211,0.339,0.323,0.312,0.171,0.105,north,8.3,Yes
2017/10/25,17:10,0.324,0.210,0.338,0.320,0.312,0.170,0.104,north,9.8,Yes
2017/10/25,17:20,0.326,0.211,0.338,0.320,0.310,0.169,0.103,north-northwest,8.4,No
2017/10/25,17:30,0.326,0.210,0.337,0.319,0.313,0.169,0.102,north-northwest,6.5,No
2017/10/25,17:40,0.324,0.209,0.337,0.319,0.310,0.168,0.102,north,6.8,No
2017/10/25,17:50,0.325,0.209,0.337,0.319,0.311,0.168,0.102,north,7.7,No
2017/10/25,18:00,0.323,0.207,0.335,0.317,0.310,0.167,0.100,north,7.4,Yes
2017/10/25,18:10,0.323,0.207,0.337,0.317,0.308,0.166,0.101,north,7.0,No
2017/10/25,18:20,0.322,0.207,0.335,0.317,0.309,0.166,0.101,north,6.0,No
2017/10/25,18:30,0.322,0.207,0.335,0.315,0.307,0.166,0.099,north,5.2,No
2017/10/25,18:40,0.323,0.207,0.336,0.318,0.310,0.165,0.101,north,5.9,No
2017/10/25,18:50,0.321,0.207,0.335,0.316,0.308,0.166,0.099,north,5.9,No
2017/10/25,19:00,0.321,0.207,0.336,0.318,0.309,0.166,0.100,north,7.5,No
2017/10/25,19:10,0.321,0.207,0.334,0.314,0.307,0.165,0.099,north,7.3,No
2017/10/25,19:20,0.320,0.205,0.335,0.316,0.309,0.165,0.099,north,7.3,No
2017/10/25,19:30,0.322,0.207,0.335,0.316,0.309,0.165,0.099,north,6.6,No
2017/10/25,19:40,0.321,0.207,0.334,0.315,0.307,0.165,0.099,north,6.2,No
2017/10/25,19:50,0.322,0.206,0.336,0.318,0.308,0.164,0.099,north,7.5,No
2017/10/25,20:00,0.321,0.207,0.333,0.315,0.307,0.165,0.098,north,8.1,No
2017/10/25,20:10,0.320,0.206,0.334,0.317,0.308,0.165,0.099,north,7.7,No
2017/10/25,20:20,0.322,0.205,0.336,0.316,0.308,0.164,0.100,north,7.7,No
2017/10/25,20:30,0.321,0.206,0.333,0.316,0.307,0.164,0.100,north,7.6,No
2017/10/25,20:40,0.323,0.206,0.337,0.317,0.308,0.165,0.099,north,6.8,No
2017/10/25,20:50,0.320,0.206,0.335,0.316,0.308,0.164,0.099,north,7.1,No
2017/10/25,21:00,0.321,0.208,0.334,0.317,0.309,0.165,0.099,north,7.4,No
2017/10/25,21:10,0.322,0.205,0.336,0.317,0.308,0.165,0.099,north,8.7,No
2017/10/25,21:20,0.321,0.207,0.334,0.317,0.309,0.165,0.099,north,9.3,No
2017/10/25,21:30,0.323,0.207,0.336,0.318,0.309,0.166,0.099,north,9.8,No
2017/10/25,21:40,0.322,0.207,0.336,0.318,0.308,0.164,0.100,north,9.0,No
2017/10/25,21:50,0.321,0.207,0.334,0.316,0.308,0.166,0.099,north,9.6,No
2017/10/25,22:00,0.323,0.207,0.336,0.317,0.308,0.166,0.098,north,8.6,No
2017/10/25,22:10,0.321,0.206,0.336,0.316,0.306,0.164,0.099,north,8.4,No
2017/10/25,22:20,0.323,0.207,0.336,0.316,0.308,0.165,0.099,north,7.3,No
2017/10/25,22:30,0.321,0.206,0.336,0.317,0.307,0.166,0.100,north,7.3,No
2017/10/25,22:40,0.320,0.206,0.336,0.316,0.308,0.166,0.099,north,8.1,No
2017/10/25,22:50,0.323,0.208,0.334,0.317,0.309,0.166,0.099,north,7.8,No
2017/10/25,23:00,0.322,0.207,0.335,0.318,0.309,0.165,0.099,north,7.5,No
2017/10/25,23:10,0.323,0.206,0.335,0.315,0.307,0.165,0.099,north,7.3,No
2017/10/25,23:20,0.323,0.206,0.335,0.317,0.308,0.166,0.099,north,8.7,No
2017/10/25,23:30,0.322,0.207,0.337,0.317,0.309,0.164,0.100,north,8.4,No
2017/10/25,23:40,0.322,0.206,0.336,0.316,0.306,0.165,0.099,north,8.1,No
2017/10/25,23:50,0.321,0.206,0.336,0.316,0.308,0.165,0.099,north,8.1,No
